When you browse on this site, cookies collect data to enhance your experience and personalize the content and advertising you see.
Visit our Privacy Policy to learn more. By continuing to use the site, you agree to this use of cookies and data.

Hourly Weather Córdoba

Today, 12 August, Wednesday

Time Temperature Precipitation Wind Pressure Humidity
00:00 +7°C° 0 mm 1 mps 725 mmHg 21%
01:00 +6°C° 0 mm 1 mps 725 mmHg 22%
02:00 +6°C° 0 mm 1 mps 725 mmHg 22%
03:00 +6°C° 0 mm 1 mps 724 mmHg 23%
04:00 +6°C° 0 mm 1 mps 724 mmHg 23%
05:00 +5°C° 0 mm 1 mps 724 mmHg 24%
06:00 +6°C° 0 mm 1 mps 724 mmHg 23%
07:00 +7°C° 0 mm 1 mps 724 mmHg 23%
08:00 +7°C° 0 mm 1 mps 725 mmHg 23%
09:00 +9°C° 0 mm 2 mps 725 mmHg 20%
10:00 +11°C° 0 mm 3 mps 725 mmHg 18%
11:00 +14°C° 0 mm 3 mps 725 mmHg 15%
12:00 +15°C° 0 mm 4 mps 724 mmHg 14%
13:00 +17°C° 0 mm 4 mps 723 mmHg 14%
14:00 +18°C° 0 mm 4 mps 722 mmHg 13%
15:00 +17°C° 0 mm 4 mps 722 mmHg 15%
16:00 +15°C° 0 mm 4 mps 722 mmHg 17%
17:00 +15°C° 0 mm 4 mps 721 mmHg 18%
18:00 +12°C° 0 mm 3 mps 721 mmHg 23%
19:00 +10°C° 0 mm 3 mps 722 mmHg 27%
20:00 +8°C° 0 mm 3 mps 722 mmHg 32%
21:00 +8°C° 0 mm 2 mps 722 mmHg 33%
22:00 +7°C° 0 mm 2 mps 722 mmHg 34%
23:00 +7°C° 0 mm 2 mps 722 mmHg 35%

Tomorrow, 13 August, Thursday

Time Temperature Precipitation Wind Pressure Humidity
00:00 +7°C° 0 mm 2 mps 722 mmHg 34%
01:00 +6°C° 0 mm 2 mps 722 mmHg 34%
02:00 +6°C° 0 mm 2 mps 722 mmHg 34%
03:00 +7°C° 0 mm 1 mps 722 mmHg 34%
04:00 +7°C° 0 mm 1 mps 721 mmHg 33%
05:00 +6°C° 0 mm 1 mps 721 mmHg 33%
06:00 +7°C° 0 mm 1 mps 722 mmHg 31%
07:00 +8°C° 0 mm 1 mps 722 mmHg 30%
08:00 +9°C° 0 mm 1 mps 722 mmHg 28%
09:00 +12°C° 0 mm 1 mps 722 mmHg 24%
10:00 +15°C° 0 mm 1 mps 722 mmHg 20%
11:00 +18°C° 0 mm 1 mps 723 mmHg 15%
12:00 +18°C° 0 mm 2 mps 722 mmHg 15%
13:00 +19°C° 0 mm 2 mps 721 mmHg 14%
14:00 +20°C° 0 mm 3 mps 721 mmHg 14%
15:00 +20°C° 0 mm 3 mps 720 mmHg 16%
16:00 +19°C° 0 mm 3 mps 720 mmHg 18%
17:00 +19°C° 0 mm 3 mps 719 mmHg 20%
18:00 +16°C° 0 mm 3 mps 719 mmHg 26%
19:00 +13°C° 0 mm 3 mps 719 mmHg 32%
20:00 +10°C° 0 mm 3 mps 719 mmHg 38%
21:00 +10°C° 0 mm 3 mps 719 mmHg 39%
22:00 +10°C° 0 mm 3 mps 719 mmHg 40%
23:00 +9°C° 0 mm 3 mps 719 mmHg 40%

Day after tomorrow, 14 August, Friday

Time Temperature Precipitation Wind Pressure Humidity
00:00 +9°C° 0 mm 3 mps 718 mmHg 42%
01:00 +9°C° 0 mm 2 mps 718 mmHg 43%
02:00 +8°C° 0 mm 2 mps 718 mmHg 44%
03:00 +8°C° 0 mm 2 mps 717 mmHg 46%
04:00 +7°C° 0 mm 2 mps 717 mmHg 47%
05:00 +8°C° 0 mm 1 mps 717 mmHg 49%
06:00 +9°C° 0 mm 1 mps 718 mmHg 48%
07:00 +10°C° 0 mm 1 mps 718 mmHg 47%
08:00 +10°C° 0 mm 1 mps 719 mmHg 46%
09:00 +12°C° 0 mm 4 mps 719 mmHg 39%
10:00 +14°C° 0 mm 6 mps 720 mmHg 32%
11:00 +16°C° 0 mm 9 mps 721 mmHg 24%
12:00 +16°C° 0 mm 8 mps 721 mmHg 24%
13:00 +16°C° 0 mm 8 mps 721 mmHg 24%
14:00 +16°C° 0 mm 7 mps 720 mmHg 24%
15:00 +16°C° 0 mm 7 mps 721 mmHg 22%
16:00 +15°C° 0 mm 6 mps 721 mmHg 20%
17:00 +14°C° 0 mm 5 mps 721 mmHg 18%
18:00 +12°C° 0 mm 4 mps 722 mmHg 20%
19:00 +10°C° 0 mm 4 mps 722 mmHg 22%
20:00 +8°C° 0 mm 3 mps 723 mmHg 24%
21:00 +8°C° 0 mm 2 mps 723 mmHg 24%
22:00 +7°C° 0 mm 2 mps 723 mmHg 25%
23:00 +6°C° 0 mm 2 mps 724 mmHg 26%

15 August, Saturday

Time Temperature Precipitation Wind Pressure Humidity
00:00 +7°C° 0 mm 1 mps 724 mmHg 26%
01:00 +7°C° 0 mm 1 mps 723 mmHg 26%
02:00 +6°C° 0 mm 1 mps 723 mmHg 26%
03:00 +6°C° 0 mm 1 mps 723 mmHg 27%
04:00 +6°C° 0 mm 1 mps 722 mmHg 28%
05:00 +6°C° 0 mm 1 mps 722 mmHg 28%
06:00 +7°C° 0 mm 1 mps 722 mmHg 28%
07:00 +8°C° 0 mm 1 mps 723 mmHg 27%
08:00 +8°C° 0 mm 1 mps 723 mmHg 27%
09:00 +10°C° 0 mm 2 mps 723 mmHg 23%
10:00 +12°C° 0 mm 3 mps 723 mmHg 20%
11:00 +14°C° 0 mm 3 mps 723 mmHg 17%
12:00 +16°C° 0 mm 3 mps 723 mmHg 17%
13:00 +17°C° 0 mm 3 mps 722 mmHg 16%
14:00 +18°C° 0 mm 3 mps 722 mmHg 16%
15:00 +18°C° 0 mm 3 mps 722 mmHg 17%
16:00 +17°C° 0 mm 3 mps 722 mmHg 18%
17:00 +17°C° 0 mm 2 mps 722 mmHg 18%
18:00 +14°C° 0 mm 2 mps 722 mmHg 22%
19:00 +12°C° 0 mm 2 mps 723 mmHg 26%
20:00 +10°C° 0 mm 1 mps 724 mmHg 29%
21:00 +9°C° 0 mm 1 mps 724 mmHg 31%
22:00 +9°C° 0 mm 1 mps 725 mmHg 32%
23:00 +7°C° 0 mm 2 mps 725 mmHg 34%

16 August, Sunday

Time Temperature Precipitation Wind Pressure Humidity
00:00 +7°C° 0 mm 1 mps 725 mmHg 35%
01:00 +7°C° 0 mm 1 mps 725 mmHg 37%
02:00 +6°C° 0 mm 1 mps 725 mmHg 38%
03:00 +6°C° 0 mm 1 mps 725 mmHg 38%
04:00 +5°C° 0 mm 1 mps 724 mmHg 39%
05:00 +5°C° 0 mm 1 mps 724 mmHg 39%
06:00 +6°C° 0 mm 1 mps 724 mmHg 38%
07:00 +7°C° 0 mm 1 mps 724 mmHg 36%
08:00 +8°C° 0 mm 1 mps 724 mmHg 35%
09:00 +10°C° 0 mm 2 mps 724 mmHg 31%
10:00 +13°C° 0 mm 3 mps 724 mmHg 28%
11:00 +16°C° 0 mm 5 mps 724 mmHg 24%
12:00 +17°C° 0 mm 5 mps 724 mmHg 23%
13:00 +19°C° 0 mm 5 mps 723 mmHg 21%
14:00 +21°C° 0 mm 5 mps 722 mmHg 20%
15:00 +20°C° 0 mm 5 mps 722 mmHg 21%
16:00 +20°C° 0 mm 4 mps 722 mmHg 23%
17:00 +19°C° 0 mm 4 mps 721 mmHg 24%
18:00 +17°C° 0 mm 3 mps 722 mmHg 29%
19:00 +13°C° 0 mm 3 mps 722 mmHg 35%
20:00 +12°C° 0 mm 2 mps 722 mmHg 40%
21:00 +10°C° 0 mm 2 mps 723 mmHg 41%
22:00 +10°C° 0 mm 2 mps 723 mmHg 43%
23:00 +10°C° 0 mm 1 mps 724 mmHg 45%

17 August, Monday

Time Temperature Precipitation Wind Pressure Humidity
00:00 +9°C° 0 mm 2 mps 724 mmHg 44%
01:00 +9°C° 0 mm 2 mps 724 mmHg 43%
02:00 +8°C° 0 mm 3 mps 725 mmHg 43%
03:00 +8°C° 0 mm 3 mps 725 mmHg 39%
04:00 +8°C° 0 mm 3 mps 725 mmHg 36%
05:00 +6°C° 0 mm 4 mps 725 mmHg 33%
06:00 +7°C° 0 mm 3 mps 726 mmHg 34%
07:00 +8°C° 0 mm 2 mps 726 mmHg 36%
08:00 +8°C° 0 mm 2 mps 726 mmHg 37%
09:00 +9°C° 0 mm 2 mps 726 mmHg 36%
10:00 +12°C° 0 mm 2 mps 726 mmHg 34%
11:00 +14°C° 0 mm 2 mps 726 mmHg 32%
12:00 +15°C° 0 mm 2 mps 726 mmHg 30%
13:00 +17°C° 0 mm 3 mps 725 mmHg 28%
14:00 +18°C° 0 mm 4 mps 724 mmHg 26%
15:00 +17°C° 0 mm 4 mps 724 mmHg 28%
16:00 +17°C° 0 mm 4 mps 724 mmHg 29%
17:00 +17°C° 0 mm 4 mps 724 mmHg 31%
18:00 +14°C° 0 mm 3 mps 724 mmHg 37%
19:00 +13°C° 0 mm 2 mps 724 mmHg 43%
20:00 +10°C° 0 mm 2 mps 725 mmHg 48%
21:00 +9°C° 0 mm 2 mps 725 mmHg 49%
22:00 +9°C° 0 mm 2 mps 725 mmHg 50%
23:00 +9°C° 0 mm 2 mps 726 mmHg 51%
Show more